GW5592 Weather Reports


Display with metric or nautical units.
time (UTC)temp
F
wind
direction
speed
MPH
gust
MPH
rain 1hr
in
rain 24hr
in
rain mn
in
humidity
%
barometer
mb
20260507150506 63 139 0.0 2.0 0.00 0.00 0.00 69 1010.6
20260507150017 63 161 0.0 2.0 0.00 0.00 0.00 69 1010.6
20260507145507 63 138 0.0 2.0 0.00 0.00 0.00 70 1010.6
20260507145013 63 119 1.0 3.0 0.00 0.00 0.00 69 1010.7
20260507144522 62 104 1.0 3.0 0.00 0.00 0.00 72 1010.7
20260507144010 61 96 2.0 3.0 0.00 0.00 0.00 72 1010.8
20260507143508 61 86 1.0 3.0 0.00 0.00 0.00 71 1010.9
20260507143027 61 93 1.0 3.0 0.00 0.00 0.00 71 1010.9
20260507142510 61 96 1.0 2.0 0.00 0.00 0.00 73 1010.9
20260507142011 61 96 1.0 2.0 0.00 0.00 0.00 73 1011.0
20260507141525 60 124 0.0 2.0 0.00 0.00 0.00 73 1011.1
20260507141003 60 138 0.0 2.0 0.00 0.00 0.00 76 1011.2
20260507140506 60 136 0.0 2.0 0.00 0.00 0.00 74 1011.2
20260507140031 60 108 0.0 2.0 0.00 0.00 0.00 71 1011.3
20260507135507 61 181 0.0 3.0 0.00 0.00 0.00 70 1011.3
20260507135011 62 152 0.0 8.0 0.00 0.00 0.00 63 1011.2
20260507134517 62 163 1.0 9.0 0.00 0.00 0.00 61 1011.3
20260507134006 63 273 4.0 9.0 0.00 0.00 0.00 58 1011.2
20260507133509 64 157 3.0 7.0 0.00 0.00 0.00 55 1011.4
20260507133024 63 242 2.0 8.0 0.00 0.00 0.00 54 1011.3
20260507132509 64 302 4.0 10.0 0.00 0.00 0.00 53 1011.3
20260507132009 65 246 4.0 10.0 0.00 0.00 0.00 50 1011.3
20260507131508 65 288 3.0 10.0 0.00 0.00 0.00 52 1011.3
20260507131007 65 323 2.0 11.0 0.00 0.00 0.00 51 1011.4
20260507130507 64 273 6.0 11.0 0.00 0.00 0.00 51 1011.3
20260507130009 64 277 2.0 10.0 0.00 0.00 0.00 55 1011.4
20260507125507 65 296 4.0 10.0 0.00 0.00 0.00 53 1011.5
20260507125006 64 283 4.0 12.0 0.00 0.00 0.00 53 1011.6
20260507124520 64 288 6.0 12.0 0.00 0.00 0.00 54 1011.7
20260507124007 63 271 5.0 11.0 0.00 0.00 0.00 55 1011.7
20260507123510 63 278 5.0 14.0 0.00 0.00 0.00 55 1011.8
20260507123027 63 298 7.0 14.0 0.00 0.00 0.00 57 1011.9
20260507122517 63 234 7.0 14.0 0.00 0.00 0.00 54 1012.0
20260507122011 63 241 4.0 13.0 0.00 0.00 0.00 52 1012.0
20260507121526 63 259 4.0 8.0 0.00 0.00 0.00 54 1012.0
20260507121009 63 207 4.0 7.0 0.00 0.00 0.00 54 1012.0
20260507120510 63 182 3.0 12.0 0.00 0.00 0.00 54 1012.1
20260507120022 63 161 3.0 12.0 0.00 0.00 0.00 54 1012.2
20260507115506 63 218 4.0 10.0 0.00 0.00 0.00 53 1012.3
20260507115005 63 248 4.0 9.0 0.00 0.00 0.00 53 1012.3
20260507114512 63 188 3.0 9.0 0.00 0.00 0.00 50 1012.4
20260507114010 63 244 4.0 13.0 0.00 0.00 0.00 52 1012.5
20260507113508 63 237 5.0 13.0 0.00 0.00 0.00 52 1012.5
20260507113049 63 144 4.0 12.0 0.00 0.00 0.00 53 1012.5
20260507112511 63 184 4.0 10.0 0.00 0.00 0.00 53 1012.5
20260507112011 64 180 4.0 10.0 0.00 0.00 0.00 52 1012.5
20260507111526 62 245 5.0 10.0 0.00 0.00 0.00 53 1012.4
20260507111010 63 266 4.0 10.0 0.00 0.00 0.00 51 1012.5
20260507110508 63 226 3.0 7.0 0.00 0.00 0.00 55 1012.5
20260507110025 62 268 4.0 8.0 0.00 0.00 0.00 54 1012.5
20260507105513 62 271 4.0 8.0 0.00 0.00 0.00 53 1012.5
20260507105003 62 269 5.0 9.0 0.00 0.00 0.00 54 1012.5
20260507104514 62 277 5.0 9.0 0.00 0.00 0.00 54 1012.5
20260507104006 63 234 4.0 7.0 0.00 0.00 0.00 54 1012.6
20260507103507 62 230 2.0 7.0 0.00 0.00 0.00 56 1012.6
20260507103017 61 230 0.0 6.0 0.00 0.00 0.00 56 1012.5
20260507102507 61 242 3.0 8.0 0.00 0.00 0.00 56 1012.5
20260507102009 61 239 2.0 7.0 0.00 0.00 0.00 59 1012.6
20260507101524 60 163 3.0 9.0 0.00 0.00 0.00 60 1012.6
20260507101011 60 182 3.0 10.0 0.00 0.00 0.00 61 1012.6
20260507100509 60 221 5.0 10.0 0.00 0.00 0.00 61 1012.6
20260507100038 60 172 2.0 11.0 0.00 0.00 0.00 61 1012.6
20260507095509 60 164 2.0 11.0 0.00 0.00 0.00 61 1012.6
20260507095011 60 200 2.0 10.0 0.00 0.00 0.00 62 1012.6
20260507094527 60 219 3.0 12.0 0.00 0.00 0.00 62 1012.6
20260507094007 60 229 4.0 12.0 0.00 0.00 0.00 63 1012.6
20260507093503 59 189 1.0 6.0 0.00 0.00 0.00 63 1012.6
20260507093014 60 227 1.0 2.0 0.00 0.00 0.00 64 1012.5
20260507092512 59 183 0.0 2.0 0.00 0.00 0.00 69 1012.6
20260507092007 58 209 0.0 2.0 0.00 0.00 0.00 66 1012.7
20260507091521 58 234 0.0 2.0 0.00 0.00 0.00 66 1012.7
20260507091009 58 234 0.0 2.0 0.00 0.00 0.00 66 1012.7
20260507090510 58 268 1.0 2.0 0.00 0.00 0.00 67 1012.8
20260507090023 58 62 0.0 2.0 0.00 0.00 0.00 68 1012.8
20260507085510 58 317 0.0 2.0 0.00 0.00 0.00 67 1012.8
20260507085010 57 333 1.0 2.0 0.00 0.00 0.00 67 1012.8
20260507084544 58 325 0.0 2.0 0.00 0.00 0.00 1012.8
20260507084015 58 300 0.0 2.0 0.00 0.00 0.00 68 1012.7
20260507083510 58 103 0.0 2.0 0.00 0.00 0.00 68 1012.8
20260507083027 57 117 0.0 3.0 0.00 0.00 0.00 68 1012.7
20260507082506 58 61 0.0 3.0 0.00 0.00 0.00 72 1012.6
20260507082007 58 82 1.0 3.0 0.00 0.00 0.00 73 1012.6
20260507081520 57 51 0.0 2.0 0.00 0.00 0.00 74 1012.7
20260507081010 56 71 0.0 2.0 0.00 0.00 0.00 75 1012.7
20260507080508 55 74 1.0 2.0 0.00 0.00 0.00 75 1012.7
20260507080023 55 5 0.0 2.0 0.00 0.00 0.00 75 1012.7
20260507075508 55 17 0.0 2.0 0.00 0.00 0.00 76 1012.7
20260507075017 55 12 0.0 2.0 0.00 0.00 0.00 75 1012.7
20260507074524 54 88 0.0 2.0 0.00 0.00 0.00 76 1012.7
20260507074010 54 88 0.0 0.0 0.00 0.00 0.00 76 1012.7
20260507073510 54 51 0.0 2.0 0.00 0.00 0.00 77 1012.7
20260507073028 53 38 0.0 2.0 0.00 0.00 0.00 77 1012.7
20260507072513 53 50 0.0 2.0 0.00 0.00 0.00 77 1012.7
20260507072012 52 40 1.0 2.0 0.00 0.00 0.00 78 1012.7
20260507071532 52 24 0.0 2.0 0.00 0.00 0.00 78 1012.7
20260507071008 52 30 0.0 2.0 0.00 0.00 0.00 78 1012.6
20260507070510 51 32 1.0 2.0 0.00 0.00 0.00 78 1012.5
20260507070023 51 25 1.0 2.0 0.00 0.00 0.00 78 1012.5
20260507065506 51 15 0.0 1.0 0.00 0.00 0.00 78 1012.5
20260507065011 50 19 0.0 2.0 0.00 0.00 0.00 78 1012.4
20260507064525 50 23 0.0 2.0 0.00 0.00 0.00 79 1012.4
20260507064009 50 28 0.0 2.0 0.00 0.00 0.00 79 1012.3
20260507063511 50 345 0.0 2.0 0.00 0.00 0.00 78 1012.3
20260507063028 50 21 0.0 2.0 0.00 0.00 0.00 79 1012.3
20260507062511 50 76 0.0 2.0 0.00 0.00 0.00 79 1012.2
20260507062013 49 32 0.0 3.0 0.00 0.00 0.00 79 1012.1
20260507061533 49 31 0.0 3.0 0.00 0.00 0.00 80 1012.1
20260507061012 49 20 0.0 3.0 0.00 0.00 0.00 80 1012.1
20260507060508 48 53 1.0 4.0 0.00 0.00 0.00 80 1012.0
20260507060032 48 38 2.0 4.0 0.00 0.00 0.00 80 1012.0
20260507055509 48 338 0.0 2.0 0.00 0.00 0.00 80 1012.0
20260507055006 48 48 0.0 2.0 0.00 0.00 0.00 79 1012.0
20260507054534 47 27 0.0 3.0 0.00 0.00 0.00 79 1012.0
20260507054009 47 12 1.0 3.0 0.00 0.00 0.00 80 1011.8
20260507053511 47 21 0.0 2.0 0.00 0.00 0.00 80 1011.8
20260507053029 47 360 0.0 0.0 0.00 0.00 0.00 80 1011.6
20260507052509 47 18 0.0 2.0 0.00 0.00 0.00 80 1011.5
20260507052007 47 18 0.0 2.0 0.00 0.00 0.00 80 1011.6
20260507051529 47 13 0.0 2.0 0.00 0.00 0.00 80 1011.5
20260507051011 47 346 0.0 2.0 0.00 0.00 0.00 80 1011.4
20260507050506 47 22 0.0 2.0 0.00 0.00 0.00 80 1011.4
20260507050031 47 350 0.0 3.0 0.00 0.00 0.00 80 1011.3
20260507045508 47 48 0.0 3.0 0.00 0.00 0.00 79 1011.4
20260507045007 47 47 2.0 3.0 0.00 0.00 0.00 79 1011.3
20260507044521 47 36 0.0 2.0 0.00 0.00 0.00 78 1011.3
20260507044007 47 352 0.0 2.0 0.00 0.00 0.00 77 1011.4
20260507043503 48 11 1.0 2.0 0.00 0.00 0.00 77 1011.3
20260507043004 48 9 1.0 2.0 0.00 0.00 0.00 76 1011.4
20260507042508 48 18 1.0 2.0 0.00 0.00 0.00 76 1011.4
20260507042004 49 17 0.0 2.0 0.00 0.00 0.00 76 1011.5
20260507041508 49 11 0.0 2.0 0.00 0.00 0.00 75 1011.4
20260507041003 49 94 0.0 2.0 0.00 0.00 0.00 75 1011.4
20260507040507 49 67 0.0 2.0 0.00 0.00 0.00 75 1011.4
20260507040015 49 37 0.0 2.0 0.00 0.00 0.00 74 1011.4
20260507035506 50 21 0.0 2.0 0.00 0.00 0.00 74 1011.4
20260507035005 50 42 0.0 2.0 0.00 0.00 0.00 74 1011.3
20260507034513 50 42 0.0 2.0 0.00 0.00 0.00 73 1011.3
20260507034010 50 40 0.0 2.0 0.00 0.00 0.00 72 1011.4
20260507033506 51 34 0.0 1.0 0.00 0.00 0.00 73 1011.4
20260507033024 50 329 0.0 0.0 0.00 0.00 0.00 73 1011.4
20260507032504 50 69 0.0 0.0 0.00 0.00 0.00 72 1011.4
20260507032041 50 57 0.0 2.0 0.00 0.00 0.00 72 1011.4
20260507031508 50 5 0.0 4.0 0.00 0.00 0.00 72 1011.4
20260507031003 50 11 1.0 4.0 0.00 0.00 0.00 72 1011.3
20260507030504 50 18 0.0 1.0 0.00 0.00 0.00 72 1011.3
20260507030010 50 360 0.0 1.0 0.00 0.00 0.00 71 1011.2
20260507025508 51 345 1.0 2.0 0.00 0.00 0.00 71 1011.2
20260507025013 51 36 0.0 2.0 0.00 0.00 0.00 70 1011.2
20260507024518 51 38 0.0 0.0 0.00 0.00 0.00 70 1011.1
20260507024004 51 22 0.0 0.0 0.00 0.00 0.00 70 1011.2
20260507023505 51 22 0.0 0.0 0.00 0.00 0.00 70 1011.1
20260507023015 51 22 0.0 0.0 0.00 0.00 0.00 69 1011.1
20260507022507 51 17 0.0 2.0 0.00 0.00 0.00 69 1011.0
20260507022007 52 19 0.0 2.0 0.00 0.00 0.00 68 1011.1
20260507021528 52 43 1.0 2.0 0.00 0.00 0.00 67 1011.1
20260507021007 52 26 0.0 1.0 0.00 0.00 0.00 67 1011.1
20260507020505 52 352 0.0 2.0 0.00 0.00 0.00 68 1011.1
20260507020015 52 352 0.0 2.0 0.00 0.00 0.00 67 1011.1
20260507015506 52 14 0.0 2.0 0.00 0.00 0.00 67 1011.2
20260507015006 52 21 0.0 2.0 0.00 0.00 0.00 67 1011.1
20260507014519 52 20 1.0 2.0 0.00 0.00 0.00 66 1011.1
20260507014010 53 5 0.0 2.0 0.00 0.00 0.00 67 1011.2
20260507013505 53 13 0.0 2.0 0.00 0.00 0.00 67 1011.3
20260507013015 53 24 0.0 2.0 0.00 0.00 0.00 66 1011.4
20260507012507 53 36 0.0 2.0 0.00 0.00 0.00 67 1011.4
20260507012010 54 44 0.0 2.0 0.00 0.00 0.00 65 1011.5
20260507011527 54 31 1.0 2.0 0.00 0.00 0.00 64 1011.4
20260507011008 54 23 0.0 2.0 0.00 0.00 0.00 64 1011.5
20260507010510 55 352 0.0 2.0 0.00 0.00 0.00 63 1011.5
20260507010029 55 9 0.0 3.0 0.00 0.00 0.00 63 1011.6
20260507005507 55 19 0.0 3.0 0.00 0.00 0.00 61 1011.5
20260507005007 55 36 1.0 2.0 0.00 0.00 0.00 61 1011.6
20260507004518 55 47 0.0 2.0 0.00 0.00 0.00 61 1011.7
20260507004006 55 53 0.0 3.0 0.00 0.00 0.00 61 1011.7
20260507003507 55 39 1.0 3.0 0.00 0.00 0.00 62 1011.7
20260507003019 56 27 0.0 1.0 0.00 0.00 0.00 60 1011.7
20260507002506 56 69 0.0 2.0 0.00 0.00 0.00 60 1011.7
20260507002008 56 33 0.0 2.0 0.00 0.00 0.00 60 1011.8
20260507001516 56 32 0.0 2.0 0.00 0.00 0.00 59 1011.8
20260507001007 56 24 0.0 2.0 0.00 0.00 0.00 58 1011.7
20260507000512 56 57 0.0 2.0 0.00 0.00 0.00 58 1011.9
20260507000018 56 42 1.0 2.0 0.00 0.00 0.00 57 1012.0
20260506235506 57 360 0.0 1.0 0.00 0.00 0.00 55 1012.0
20260506235007 57 360 0.0 0.0 0.00 0.00 0.00 54 1012.0
20260506234519 57 360 0.0 0.0 0.00 0.00 0.00 54 1012.0
20260506234006 56 360 0.0 2.0 0.00 0.00 0.00 55 1012.1
20260506233506 56 360 0.0 2.0 0.00 0.00 0.00 55 1012.1
20260506233012 57 360 0.0 2.0 0.00 0.00 0.00 54 1012.1
20260506232506 57 360 0.0 2.0 0.00 0.00 0.00 52 1012.1
20260506232008 58 338 0.0 2.0 0.00 0.00 0.00 51 1012.1
20260506231525 58 262 0.0 2.0 0.00 0.00 0.00 51 1012.1
20260506231010 58 263 0.0 2.0 0.00 0.00 0.00 51 1012.1
20260506230506 59 246 1.0 2.0 0.00 0.00 0.00 51 1012.1
20260506230024 59 306 1.0 4.0 0.00 0.00 0.00 51 1012.1
20260506225511 59 5 2.0 4.0 0.00 0.00 0.00 51 1012.1
20260506225010 59 301 2.0 4.0 0.00 0.00 0.00 53 1012.2
20260506224520 59 279 1.0 2.0 0.00 0.00 0.00 53 1012.2
20260506224008 59 284 0.0 2.0 0.00 0.00 0.00 51 1012.2
20260506223513 59 292 1.0 2.0 0.00 0.00 0.00 51 1012.1
20260506223020 59 261 0.0 3.0 0.00 0.00 0.00 51 1012.1
20260506222509 59 253 1.0 3.0 0.00 0.00 0.00 51 1012.1
20260506222010 59 282 1.0 2.0 0.00 0.00 0.00 52 1012.2
20260506221516 59 274 1.0 3.0 0.00 0.00 0.00 52 1012.1
20260506221009 59 260 1.0 3.0 0.00 0.00 0.00 51 1012.1
20260506220507 59 306 1.0 3.0 0.00 0.00 0.00 51 1011.9
20260506220029 59 300 1.0 2.0 0.00 0.00 0.00 52 1012.0
20260506215508 60 283 0.0 2.0 0.00 0.00 0.00 53 1012.0
20260506215009 60 269 0.0 4.0 0.00 0.00 0.00 51 1012.0
20260506214521 59 228 2.0 4.0 0.00 0.00 0.00 52 1012.0
20260506214008 60 281 1.0 4.0 0.00 0.00 0.00 51 1012.0
20260506213511 60 261 0.0 3.0 0.00 0.00 0.00 51 1012.0
20260506213028 60 254 0.0 3.0 0.00 0.00 0.00 54 1011.9
20260506212508 60 229 2.0 4.0 0.00 0.00 0.00 51 1011.9
20260506212013 60 223 2.0 5.0 0.00 0.00 0.00 50 1011.9
20260506211527 60 205 1.0 6.0 0.00 0.00 0.00 51 1011.9
20260506211007 60 203 2.0 6.0 0.00 0.00 0.00 51 1011.8
20260506210508 60 200 2.0 5.0 0.00 0.00 0.00 51 1011.7
20260506210018 60 200 1.0 5.0 0.00 0.00 0.00 53 1011.7
20260506205507 60 208 2.0 5.0 0.00 0.00 0.00 52 1011.6
20260506205008 60 248 2.0 5.0 0.00 0.00 0.00 53 1011.5
20260506204531 60 259 1.0 4.0 0.00 0.00 0.00 53 1011.6
20260506204013 61 177 0.0 2.0 0.00 0.00 0.00 52 1011.4
20260506203508 61 202 0.0 3.0 0.00 0.00 0.00 52 1011.4
20260506203027 61 202 0.0 4.0 0.00 0.00 0.00 51 1011.3
20260506202509 61 209 0.0 6.0 0.00 0.00 0.00 52 1011.2
20260506202010 61 145 1.0 6.0 0.00 0.00 0.00 50 1011.1
20260506201527 62 190 1.0 4.0 0.00 0.00 0.00 50 1011.1
20260506201008 62 168 1.0 5.0 0.00 0.00 0.00 49 1011.1
20260506200505 62 173 2.0 5.0 0.00 0.00 0.00 50 1011.1
20260506200014 62 157 0.0 1.0 0.00 0.00 0.00 50 1011.0
20260506195506 62 109 0.0 4.0 0.00 0.00 0.00 49 1011.0
20260506195006 63 126 0.0 6.0 0.00 0.00 0.00 49 1010.9
20260506194519 63 200 3.0 6.0 0.00 0.00 0.00 48 1010.9
20260506194011 63 157 2.0 5.0 0.00 0.00 0.00 49 1010.8
20260506193509 64 157 0.0 2.0 0.00 0.00 0.00 48 1010.7
20260506193023 64 236 0.0 2.0 0.00 0.00 0.00 47 1010.7
20260506192506 64 294 0.0 4.0 0.00 0.00 0.00 47 1010.5
20260506192009 64 279 2.0 4.0 0.00 0.00 0.00 46 1010.5
20260506191511 65 195 1.0 4.0 0.00 0.00 0.00 43 1010.4
20260506191016 65 207 0.0 4.0 0.00 0.00 0.00 43 1010.3
20260506190508 65 209 0.0 2.0 0.00 0.00 0.00 40 1010.3
20260506190012 65 319 0.0 3.0 0.00 0.00 0.00 40 1010.1
20260506185505 66 268 0.0 3.0 0.00 0.00 0.00 40 1010.1
20260506185006 66 305 0.0 3.0 0.00 0.00 0.00 41 1010.1
20260506184519 66 269 1.0 4.0 0.00 0.00 0.00 40 1010.1
20260506184008 66 336 1.0 5.0 0.00 0.00 0.00 39 1010.1
20260506183508 66 320 2.0 7.0 0.00 0.00 0.00 38 1010.1
20260506183023 66 294 2.0 7.0 0.00 0.00 0.00 39 1010.1
20260506182506 66 293 1.0 5.0 0.00 0.00 0.00 39 1010.0
20260506182010 67 348 3.0 5.0 0.00 0.00 0.00 38 1010.1
20260506181528 67 325 2.0 5.0 0.00 0.00 0.00 38 1010.0
20260506181011 67 319 2.0 7.0 0.00 0.00 0.00 38 1010.1
20260506180510 67 5 2.0 7.0 0.00 0.00 0.00 38 1010.1
20260506180015 67 304 2.0 7.0 0.00 0.00 0.00 37 1010.1
20260506175506 67 286 3.0 7.0 0.00 0.00 0.00 37 1010.1
20260506175007 67 323 4.0 6.0 0.00 0.00 0.00 37 1010.1
20260506174515 68 347 2.0 8.0 0.00 0.00 0.00 37 1010.1
20260506174008 68 294 3.0 8.0 0.00 0.00 0.00 37 1010.0
20260506173507 68 279 5.0 8.0 0.00 0.00 0.00 36 1010.1
20260506173019 68 306 3.0 10.0 0.00 0.00 0.00 36 1010.1
20260506172508 68 296 4.0 11.0 0.00 0.00 0.00 37 1010.0
20260506172009 68 307 6.0 11.0 0.00 0.00 0.00 36 1010.0
20260506171535 69 295 3.0 10.0 0.00 0.00 0.00 35 1010.0
20260506171412 69 311 4.0 10.0 0.00 0.00 0.00 35 1010.0
20260506171407 69 311 5.0 12.0 0.00 0.00 0.00 35 1010.1
20260506171403 69 290 7.0 12.0 0.00 0.00 0.00 34 1010.0
20260506171358 69 276 7.0 13.0 0.00 0.00 0.00 34 1010.0
20260506171355 69 319 6.0 12.0 0.00 0.00 0.00 34 1009.9
20260506171350 70 265 4.0 9.0 0.00 0.00 0.00 34 1009.9
20260506150731 71 300 4.0 12.0 0.00 0.00 0.00 31 1010.4